GFSFLT2_prec_cthk_156.txt.gz
RH
25 28 36 39 41 44 49 50 49 46 41 37 36 35 33 32 35 34 32 29 29 30 32 33 32 36 41 48 58 73 80 80
24 24 26 32 39 45 48 51 53 52 47 41 39 39 42 42 38 34 34 33 32 31 33 33 31 32 38 43 54 70 81 84
17 19 23 25 31 40 47 54 55 56 59 54 48 43 42 44 44 43 38 36 36 37 34 34 32 30 33 40 52 66 76 84
15 17 17 19 21 22 25 30 40 49 57 63 64 56 48 44 45 45 46 41 39 39 39 36 34 31 31 35 43 57 67 77
21 21 20 20 19 18 17 17 18 24 33 40 47 53 56 56 48 46 47 52 45 41 44 42 37 33 32 32 37 48 63 71
23 21 19 15 14 13 13 13 13 13 13 16 22 33 41 52 56 52 48 51 56 50 45 45 44 39 34 32 34 39 51 66
21 19 14 13 11 10 9 10 10 10 10 10 11 12 17 28 42 55 56 51 54 58 52 49 45 45 41 35 33 36 47 61
20 17 14 13 11 10 9 8 8 9 10 10 10 9 9 9 15 32 48 56 57 59 60 54 51 48 47 42 35 35 41 55
19 17 14 14 12 10 9 8 8 8 8 9 10 11 9 8 8 8 16 40 58 64 64 62 57 53 48 46 42 37 37 51
18 16 15 14 13 12 10 9 8 9 9 9 10 11 11 10 9 8 7 8 25 51 69 65 63 59 53 49 45 43 37 45
16 16 15 14 13 12 11 9 8 10 11 11 11 11 13 13 12 11 10 8 8 22 47 61 70 65 56 54 48 47 42 41
18 17 15 14 14 13 12 10 10 12 13 14 16 16 16 15 14 14 13 13 11 11 25 45 60 69 70 59 52 49 50 42
18 17 17 17 16 14 14 11 12 14 15 15 17 17 18 17 16 16 16 16 16 14 16 30 49 59 74 79 65 53 53 50
19 19 19 19 18 16 16 14 13 14 15 16 17 19 21 21 21 18 18 18 19 20 17 22 35 57 67 81 80 68 53 53
21 20 20 19 19 18 17 14 13 13 15 16 18 19 22 26 26 26 27 24 23 26 25 21 28 39 62 70 81 72 64 54
23 23 21 21 20 19 19 16 15 15 16 18 20 21 22 28 34 37 36 37 31 28 30 26 27 33 47 67 78 75 72 59
25 24 23 22 20 20 19 16 16 16 17 17 20 22 26 33 42 45 43 44 44 36 29 32 28 28 43 53 73 81 71 67
27 25 24 23 21 21 18 16 17 17 18 19 19 22 28 37 48 52 48 46 48 45 41 36 34 30 30 45 58 73 66 66
30 29 27 25 23 22 18 18 18 18 19 19 21 25 28 36 48 53 52 59 59 51 45 41 38 36 30 35 46 67 74 67
34 32 30 27 25 21 18 19 19 19 20 20 25 29 30 39 55 56 57 63 66 62 54 49 44 38 36 32 46 56 96 78

GFSFLT2_prec_cthk_159.txt.gz
RH
24 24 25 29 34 42 47 50 51 50 48 44 40 35 35 38 45 47 43 41 36 33 33 34 34 33 32 35 42 51 63 73
25 24 25 30 31 31 39 46 49 50 50 49 47 44 39 38 40 45 48 45 42 39 36 35 34 33 32 33 39 45 61 69
18 18 20 21 20 21 22 25 30 39 47 49 50 51 50 45 40 40 43 48 46 44 43 39 37 33 32 31 34 42 55 65
18 20 21 20 19 18 18 18 17 17 20 26 34 42 46 46 45 43 41 43 47 51 49 46 40 37 33 33 31 35 43 56
22 22 21 18 17 15 14 13 12 12 13 13 13 17 23 34 43 43 39 42 42 47 52 53 48 41 39 34 34 32 36 45
24 23 19 17 16 15 14 12 10 9 8 8 8 9 11 12 17 29 41 42 40 42 46 50 55 47 42 41 36 34 34 38
24 22 18 17 16 15 13 11 8 7 7 7 7 7 7 7 9 11 14 27 39 40 43 45 48 54 46 43 42 38 36 36
23 22 20 18 16 15 14 11 8 7 7 6 7 7 7 8 8 7 8 11 17 29 39 42 46 45 53 48 44 43 40 36
24 23 21 19 18 16 14 11 10 8 7 7 8 8 8 8 9 9 9 8 8 15 22 36 39 44 44 53 50 47 43 41
23 22 21 20 17 15 14 13 12 11 9 10 10 10 11 11 11 11 10 10 9 9 12 22 34 39 43 49 55 52 47 43
22 21 19 18 16 16 15 14 14 13 11 11 12 12 13 13 13 13 13 12 12 10 9 12 22 30 41 44 49 56 53 47
20 18 18 18 16 16 15 16 15 14 13 12 13 13 14 14 14 14 14 13 14 14 13 11 16 22 37 46 50 51 58 52
20 19 18 18 16 16 16 17 16 16 15 13 13 14 15 16 16 17 18 17 14 14 17 17 15 23 29 40 52 53 58 57
21 20 19 18 17 17 17 17 17 17 16 13 14 15 17 18 18 19 20 21 21 19 17 19 20 20 29 35 48 60 53 55
22 21 21 20 19 18 17 17 17 18 16 13 14 15 18 19 21 23 23 27 28 27 29 27 25 25 30 38 46 59 63 52
23 23 22 21 21 19 19 18 19 19 17 14 15 16 18 19 21 22 25 32 34 37 40 38 36 30 31 36 46 49 83 64
25 25 25 24 23 22 21 21 20 19 16 14 15 16 18 21 22 25 29 31 36 44 46 44 42 37 36 37 34 39 51 78
29 28 28 27 27 26 24 23 20 19 15 15 16 16 17 21 24 27 28 32 38 47 50 47 45 46 44 40 39 36 38 59
33 32 32 32 31 27 24 23 22 18 17 18 17 18 20 22 24 26 30 31 41 50 54 51 49 50 50 46 43 38 35 46
39 38 37 36 31 28 26 25 22 18 20 21 20 21 22 22 24 26 30 33 36 49 55 54 53 58 55 50 48 42 39 38

GFSFLT2_prec_cthk_162.txt.gz
RH
29 26 26 27 25 29 34 43 47 49 50 48 46 43 39 38 38 40 39 39 41 39 38 39 38 35 33 31 30 35 41 61
26 23 23 24 23 22 22 23 30 40 45 49 49 47 45 42 40 42 42 41 39 39 41 41 40 40 38 33 32 32 36 46
20 18 18 17 17 16 16 15 15 16 18 23 34 41 45 44 41 38 37 37 37 36 36 40 44 43 41 39 34 32 39 41
20 19 18 18 18 18 17 15 14 14 14 14 13 14 18 28 38 41 37 34 34 35 35 35 38 47 50 44 39 38 40 40
22 21 19 20 21 21 19 17 15 12 11 10 9 8 8 9 11 19 32 41 38 39 38 38 40 44 48 55 49 44 43 39
23 23 22 22 21 19 18 16 14 12 9 8 7 7 6 6 6 6 8 14 26 38 41 42 44 44 45 43 52 45 44 41
25 24 23 22 20 19 18 17 14 12 9 6 6 7 7 6 6 6 6 6 8 16 29 37 39 41 46 42 42 51 44 44
26 24 24 23 22 20 18 16 14 12 9 7 7 6 6 7 7 7 8 8 7 6 11 22 33 39 39 42 39 43 48 45
25 24 23 23 21 19 18 16 14 13 11 11 9 8 8 8 9 10 10 9 9 8 8 9 16 27 36 44 38 38 43 52
27 25 24 22 21 20 18 16 15 14 13 13 12 10 10 10 9 10 11 11 12 12 11 9 9 13 20 31 40 43 45 46
26 25 23 22 21 19 17 16 15 14 14 14 14 12 12 12 12 11 11 12 12 12 13 15 16 15 14 17 25 32 42 55
25 22 21 20 19 18 17 16 15 15 15 15 15 13 13 13 13 13 13 14 14 14 14 12 13 16 17 14 18 23 28 43
21 21 21 20 20 19 18 17 16 15 15 15 16 16 14 14 16 16 16 17 17 17 18 17 14 17 19 19 19 21 19 38
22 22 22 21 21 20 19 17 18 17 17 17 17 17 16 16 15 15 16 18 19 20 24 25 23 21 23 23 24 30 29 25
25 24 23 22 22 22 21 23 22 22 19 20 18 17 16 16 16 17 18 20 20 20 25 28 27 28 30 33 36 33 40 35
28 25 24 23 24 23 22 24 25 22 23 22 20 18 16 16 16 17 19 21 22 24 26 29 31 35 36 40 43 40 42 47
29 27 26 26 26 25 25 26 27 27 27 26 24 19 17 17 18 21 21 22 23 24 27 30 35 39 40 44 43 40 39 46
32 31 29 29 28 28 28 27 28 30 30 29 27 24 20 19 19 20 21 21 24 25 28 32 38 41 43 48 44 44 40 49
34 33 35 34 33 33 32 31 32 33 32 30 30 29 27 22 21 22 23 23 23 25 29 31 35 40 43 49 51 46 45 45
41 41 43 41 40 37 37 36 38 37 36 35 34 33 32 25 24 25 26 25 25 25 29 33 34 39 42 51 54 51 49 50

GFSFLT2_prec_cthk_165.txt.gz
RH
27 26 25 24 23 22 24 26 33 41 45 47 49 48 46 43 41 39 40 39 39 38 36 37 39 41 41 40 38 35 32 39
26 24 22 18 15 14 14 13 14 14 17 24 36 44 48 50 47 41 37 37 38 36 34 32 34 36 40 43 41 39 36 36
22 20 18 15 14 14 14 14 14 13 13 15 16 18 21 31 39 41 37 34 33 35 35 35 33 33 34 36 42 42 43 44
22 20 17 16 17 19 19 19 18 17 15 14 13 11 11 10 11 17 27 34 34 32 30 31 33 35 41 40 39 41 47 49
21 19 17 19 21 22 23 22 19 17 14 12 10 8 6 6 6 8 9 12 20 35 38 44 41 39 44 49 47 49 46 52
21 20 19 21 22 23 22 20 19 17 15 13 9 7 7 6 6 5 6 9 8 10 19 31 37 38 46 44 46 46 46 47
21 21 21 23 23 22 21 20 19 17 16 13 11 8 7 7 7 7 8 10 11 11 10 8 19 31 34 39 43 48 50 49
23 23 24 24 24 23 22 20 18 17 19 14 12 10 8 8 9 11 13 13 12 9 8 7 6 9 21 31 37 44 47 47
25 25 25 24 24 23 22 20 18 19 18 16 13 12 10 9 12 14 15 11 12 14 15 16 14 13 11 10 22 32 42 48
26 26 26 26 24 22 21 20 18 17 16 16 13 13 12 12 13 15 13 12 17 17 16 16 16 16 15 14 13 14 22 30
27 26 26 24 23 20 18 19 21 20 19 19 13 13 13 14 18 19 15 18 18 18 18 16 15 14 16 15 15 15 16 18
26 26 25 23 22 21 23 22 22 20 20 19 15 17 15 15 20 20 20 21 21 20 19 19 18 17 17 15 15 15 15 17
26 26 26 25 24 24 24 22 21 21 20 17 17 16 17 20 23 21 22 21 19 20 19 19 18 19 21 18 16 17 16 14
30 30 28 27 26 24 21 22 23 22 22 20 21 17 18 21 20 22 23 19 19 23 20 22 23 24 25 25 21 20 20 25
31 31 29 28 26 28 27 25 24 24 24 23 23 24 23 23 24 22 20 20 20 21 24 26 26 26 30 33 31 24 26 25
31 30 32 31 29 30 26 28 27 27 26 25 25 25 25 26 27 26 22 21 20 20 23 26 28 29 32 35 36 36 37 26
38 37 36 33 31 29 30 31 32 31 30 29 28 28 28 28 30 29 27 23 23 24 23 26 30 31 32 35 36 37 39 40
39 37 37 35 33 33 32 32 35 37 36 35 33 32 32 32 33 31 29 27 25 26 27 26 28 32 33 34 36 39 41 45
41 40 40 40 39 40 40 42 43 41 40 39 38 37 36 36 37 35 29 27 27 27 29 31 31 30 31 33 37 41 42 45
45 45 44 44 46 46 47 48 47 46 45 45 45 44 43 43 42 40 34 31 30 29 31 33 31 30 30 30 36 39 41 47

GFSFLT2_prec_cthk_168.txt.gz
RH
24 24 24 24 22 19 18 17 17 18 25 31 34 40 42 44 43 42 39 38 36 36 36 34 33 31 32 33 35 38 38 40
24 24 21 17 16 15 14 13 13 13 13 14 15 21 25 34 43 43 43 38 34 32 33 33 33 31 29 30 32 34 35 36
24 21 18 17 16 16 15 15 16 16 16 15 15 15 16 16 16 18 24 31 33 32 30 29 30 30 31 29 29 31 32 34
22 20 18 17 17 17 18 19 19 19 18 16 15 14 13 11 9 8 10 10 14 23 30 33 31 30 31 32 35 40 39 37
21 20 18 18 18 19 21 22 22 21 18 15 13 12 11 8 7 6 6 6 8 10 12 24 33 37 41 41 42 42 54 49
21 20 18 19 19 19 21 22 21 20 18 17 15 13 10 8 7 7 7 8 8 8 7 7 14 27 33 33 40 43 46 48
22 20 19 19 20 21 22 23 22 20 19 17 15 14 12 9 8 8 10 12 11 8 8 7 6 7 16 27 29 31 38 43
22 21 20 20 21 23 24 23 22 21 19 16 15 13 12 11 10 11 14 13 11 10 12 11 11 10 8 7 15 24 26 39
23 22 22 23 23 24 24 23 21 20 19 18 15 14 13 13 13 15 16 12 13 16 14 12 12 11 11 11 12 8 12 22
25 25 24 24 25 25 24 23 20 19 17 16 14 13 12 12 13 15 14 13 17 17 17 15 13 12 11 10 12 13 13 10
30 26 25 25 24 24 24 23 21 19 18 17 14 12 13 12 13 17 14 15 17 18 17 15 14 13 14 13 11 11 11 13
30 28 27 25 24 25 27 26 22 21 20 18 15 15 14 14 14 15 15 16 16 17 19 17 17 17 15 13 12 11 11 11
31 29 28 27 26 25 26 25 23 24 22 20 20 17 16 15 16 16 16 16 16 18 20 18 18 18 18 14 12 13 13 16
35 33 29 28 26 25 25 25 25 26 25 23 25 20 18 17 17 18 18 16 16 19 22 24 22 23 24 23 20 14 15 18
37 34 32 28 27 30 28 29 30 30 26 27 26 26 24 23 21 21 22 22 22 23 26 26 26 24 28 32 32 29 24 18
37 36 34 30 28 29 29 33 33 31 31 32 30 31 29 28 27 26 26 28 27 27 28 29 29 28 28 30 34 36 35 30
38 37 38 36 33 33 34 34 35 35 34 33 34 32 33 34 34 33 32 31 30 28 28 30 32 32 31 31 33 34 35 37
40 40 38 36 34 33 32 32 33 35 37 41 42 40 41 40 39 37 36 34 34 36 37 36 36 34 34 33 34 38 37 38
42 41 41 38 37 38 38 38 41 41 45 43 42 44 43 44 43 44 43 42 41 40 39 38 38 38 36 36 36 37 38 38
45 45 43 44 45 43 41 41 44 47 46 46 48 50 50 48 45 42 40 39 39 38 40 40 41 40 39 39 38 37 37 38

GFSFLT2_prec_cthk_171.txt.gz
RH
22 23 22 22 20 18 18 17 16 16 17 20 25 28 34 37 38 41 43 42 37 35 32 31 31 30 28 27 27 30 32 33
22 22 21 19 17 15 15 14 13 13 13 14 16 17 20 21 24 28 33 35 37 35 31 30 29 30 31 31 28 27 29 31
23 22 20 18 17 16 17 16 15 15 15 16 17 17 16 17 17 16 14 14 19 26 29 32 31 27 27 28 29 30 39 41
23 21 19 18 18 18 18 18 17 17 17 17 16 15 14 14 13 11 9 10 9 10 13 18 25 30 29 33 33 34 37 47
24 22 19 18 19 19 20 20 20 19 20 18 17 15 12 12 11 10 8 8 7 6 7 10 10 16 26 29 31 31 38 44
24 22 19 19 20 19 20 20 21 21 21 20 18 17 16 14 11 9 8 7 6 7 7 7 7 7 11 22 28 30 33 46
24 22 20 20 20 21 21 22 22 23 23 21 20 18 16 14 13 10 8 7 8 8 7 7 7 8 7 7 15 24 31 33
25 23 22 21 21 21 22 22 24 24 24 22 21 18 15 13 13 13 11 11 10 10 10 8 7 7 7 9 9 8 15 23
27 25 23 23 22 22 24 24 25 24 23 21 20 17 15 13 13 13 12 13 12 11 11 10 10 10 9 8 9 9 9 8
28 28 27 25 25 24 25 25 26 26 24 20 17 14 12 11 11 11 12 12 12 12 12 10 10 10 9 9 10 9 9 9
32 30 27 27 25 25 26 27 26 25 24 20 16 14 13 12 12 12 11 11 11 12 12 11 12 11 11 11 11 10 10 11
34 32 29 28 26 26 27 28 26 24 23 22 19 16 14 14 14 13 12 12 12 12 12 12 12 14 13 12 11 12 13 14
37 35 32 31 31 29 29 27 26 26 27 26 22 20 17 17 16 15 14 13 13 13 13 13 13 16 15 13 12 14 14 17
40 41 36 34 31 30 29 28 29 29 30 29 27 25 23 22 21 19 18 18 16 15 16 16 17 22 26 23 22 16 19 20
42 40 39 36 32 32 32 32 32 33 30 29 30 30 29 29 27 26 24 22 21 21 22 24 27 26 29 31 35 34 26 20
42 39 40 38 35 34 32 33 33 33 33 35 36 35 34 34 33 31 30 29 28 27 27 30 33 32 32 32 34 38 37 32
46 39 37 37 34 32 32 33 34 35 37 37 37 36 36 38 40 39 36 34 32 32 32 35 38 37 36 36 36 35 34 38
46 42 39 37 36 35 34 35 37 38 38 38 40 42 45 45 42 39 38 37 36 37 38 40 40 38 37 38 37 38 37 34
44 40 39 38 37 37 37 37 38 40 41 41 42 45 47 47 46 44 42 40 38 38 39 40 40 39 39 38 37 38 40 40
51 47 47 46 45 44 43 41 42 43 45 49 50 52 52 50 48 45 42 39 38 38 38 38 38 38 38 39 39 40 42 43

GFSFLT2_prec_cthk_174.txt.gz
RH
26 26 25 23 21 20 17 17 16 17 17 18 22 28 32 35 36 39 41 41 44 42 38 33 31 31 31 30 29 27 26 28
26 26 23 20 19 16 15 15 15 15 14 13 14 16 18 20 21 24 29 33 37 38 34 32 32 31 29 29 30 29 29 30
26 24 21 20 19 17 17 17 17 16 16 15 15 16 16 16 16 16 17 17 17 18 22 27 30 32 30 28 29 28 27 33
25 24 21 20 19 18 18 19 19 19 18 18 17 17 16 14 14 13 12 11 10 9 9 11 13 14 20 27 30 32 33 34
24 24 22 21 20 19 19 20 20 20 20 19 19 19 17 15 14 12 12 11 8 6 6 6 8 8 8 14 22 27 30 29
25 24 23 21 21 21 20 20 21 21 21 21 21 20 18 17 16 16 14 11 7 6 6 6 6 6 6 6 9 16 22 26
27 26 24 22 22 21 21 22 22 22 22 24 23 21 20 19 17 14 13 12 9 7 6 6 6 6 6 7 8 8 15 21
30 28 26 23 23 23 23 23 22 23 25 25 24 23 22 20 17 15 13 12 11 10 9 8 7 7 7 7 7 8 9 10
31 31 28 26 26 25 22 22 24 25 26 27 26 24 21 19 17 15 13 12 11 10 10 9 9 8 8 8 8 8 8 9
35 32 30 29 27 25 24 24 24 25 26 27 26 24 20 17 14 13 11 11 10 10 10 9 9 9 8 8 8 8 9 9
36 31 28 27 27 28 29 28 26 26 26 26 26 25 22 17 14 13 12 11 11 10 10 9 9 9 9 9 9 9 10 10
36 31 28 29 31 31 33 30 28 29 28 27 25 24 23 21 17 16 14 13 13 12 12 11 11 10 10 10 9 10 13 15
39 37 33 32 34 34 34 32 31 31 30 30 27 25 24 24 24 21 19 18 18 17 16 15 14 13 12 12 12 13 16 19
41 42 39 35 36 38 37 35 36 36 34 32 30 28 27 26 27 26 25 24 23 23 22 21 20 20 21 22 22 22 20 21
41 43 42 41 38 36 36 37 36 38 36 34 32 31 31 31 32 31 30 30 29 28 26 26 26 27 30 33 33 32 30 28
40 43 44 42 36 35 37 38 38 37 36 36 35 36 37 38 38 37 36 34 32 32 32 33 37 35 33 37 37 40 41 33
43 46 48 45 41 38 37 37 38 37 35 35 37 38 39 39 40 41 41 39 37 35 33 33 35 38 38 38 37 37 38 41
51 49 50 49 44 40 38 37 36 36 36 38 40 41 43 45 47 45 41 39 37 34 34 34 38 39 38 38 38 38 38 40
60 56 54 46 41 40 38 36 36 38 40 43 46 47 48 48 49 49 47 44 41 39 38 37 39 37 36 36 36 37 38 39
67 62 55 49 48 49 49 49 50 51 51 53 54 56 57 57 55 51 47 44 42 40 39 38 37 37 36 37 36 35 35 37